EW5385 Weather Reports


Display with metric or nautical units.
time (UTC)temp
F
wind
direction
speed
MPH
gust
MPH
rain 1hr
in
rain 24hr
in
rain mn
in
humidity
%
barometer
mb
20260509223018 61 260 0.0 0.0 0.00 0.00 0.00 65 1022.6
20260509221516 59 219 0.0 0.0 0.00 0.00 0.00 63 1022.4
20260509220009 58 220 0.0 0.0 0.00 0.00 0.00 64 1022.3
20260509214504 57 207 0.0 0.0 0.00 0.00 0.00 63 1022.3
20260509213059 57 226 0.0 0.0 0.00 0.00 0.00 63 1022.1
20260509211557 56 246 0.0 0.0 0.00 0.00 0.00 60 1021.9
20260509210052 56 259 0.0 0.0 0.00 0.00 0.00 59 1021.6
20260509204546 56 241 0.0 0.0 0.00 0.00 0.00 57 1021.4
20260509203103 0 0.0 0.0 0.00 0.00 0.00 1021.2
20260509201537 0 0.0 0.0 0.00 0.00 0.00 1021.1
20260509200033 0 0.0 0.0 0.00 0.00 0.00 1021.0
20260509194530 0 0.0 0.0 0.00 0.00 0.00 1021.1
20260509193029 0 0.0 0.0 0.00 0.00 0.00 1020.9
20260509191518 0 0.0 0.0 0.00 0.00 0.00 1020.7
20260509190015 0 0.0 0.0 0.00 0.00 0.00 1020.5
20260509184513 0 0.0 0.0 0.00 0.00 0.00 1020.5
20260509183012 0 0.0 0.0 0.00 0.00 0.00 1020.6
20260509181502 0 0.0 0.0 0.00 0.00 0.00 1020.4
20260509180106 0 0.0 0.0 0.00 0.00 0.00 1020.4
20260509174553 0 0.0 0.0 0.00 0.00 0.00 1020.3
20260509173057 0 0.0 0.0 0.00 0.00 0.00 1020.1
20260509171544 0 0.0 0.0 0.00 0.00 0.00 1020.1
20260509170041 -90 248 0.0 0.0 0.00 0.00 0.00 58 1020.0
20260509164538 55 254 0.0 0.0 0.00 0.00 0.00 61 1020.3
20260509163032 56 245 0.0 0.0 0.00 0.00 0.00 68 1020.2
20260509161532 57 229 0.0 0.0 0.00 0.00 0.00 69 1020.2
20260509160028 58 221 0.0 0.0 0.00 0.00 0.00 71 1020.1
20260509154527 59 228 0.0 0.0 0.00 0.00 0.00 71 1020.1
20260509153024 59 221 0.0 0.0 0.00 0.00 0.00 71 1020.3
20260509151524 60 215 0.0 0.0 0.00 0.00 0.00 71 1020.4
20260509150021 60 221 0.0 0.0 0.00 0.00 0.00 71 1020.4
20260509144526 58 180 0.0 0.0 0.00 0.00 0.00 70 1020.6
20260509143016 58 193 0.0 0.0 0.00 0.00 0.00 68 1020.6
20260509141514 58 203 0.0 0.0 0.00 0.00 0.00 68 1020.6
20260509140010 58 235 0.0 0.0 0.00 0.00 0.00 69 1020.5
20260509134506 58 249 0.0 0.0 0.00 0.00 0.00 68 1020.7
20260509133004 58 249 0.0 0.0 0.00 0.00 0.00 68 1020.7
20260509131602 59 247 0.0 0.0 0.00 0.00 0.00 70 1020.6
20260509130101 61 256 0.0 0.0 0.00 0.00 0.00 70 1020.6
20260509124549 62 202 0.0 0.0 0.00 0.00 0.00 69 1020.6
20260509123050 62 183 0.0 0.0 0.00 0.00 0.00 69 1020.6
20260509121538 62 221 0.0 0.0 0.00 0.00 0.00 69 1020.6
20260509120035 62 214 0.0 0.0 0.00 0.00 0.00 70 1020.7
20260509114529 62 206 0.0 0.0 0.00 0.00 0.00 70 1020.7
20260509113024 62 195 0.0 0.0 0.00 0.00 0.00 69 1020.7
20260509111521 63 200 0.0 0.0 0.00 0.00 0.00 69 1020.8
20260509110020 63 203 0.0 0.0 0.00 0.00 0.00 69 1020.7
20260509104512 63 193 0.0 0.0 0.00 0.00 0.00 70 1020.6
20260509103008 63 143 0.0 0.0 0.00 0.00 0.00 70 1020.5
20260509101502 64 79 0.0 0.0 0.00 0.00 0.00 70 1020.4
20260509100058 64 79 0.0 0.0 0.00 0.00 0.00 70 1020.4
20260509094554 64 79 0.0 0.0 0.00 0.00 0.00 70 1020.2
20260509093049 64 79 0.0 0.0 0.00 0.00 0.00 70 1020.0
20260509091545 65 79 0.0 0.0 0.00 0.00 0.00 69 1019.9
20260509090040 65 79 0.0 0.0 0.00 0.00 0.00 68 1019.7
20260509084538 65 79 0.0 0.0 0.00 0.00 0.00 68 1019.6
20260509083037 66 79 0.0 0.0 0.00 0.00 0.00 66 1019.3
20260509081529 67 78 0.0 0.0 0.00 0.00 0.00 64 1019.1
20260509080033 67 78 0.0 0.0 0.00 0.00 0.00 63 1019.0
20260509074518 68 79 0.0 0.0 0.00 0.00 0.00 61 1018.9
20260509073013 69 91 0.0 0.0 0.00 0.00 0.00 59 1018.8
20260509071509 69 88 0.0 0.0 0.00 0.00 0.00 58 1018.7
20260509070004 70 91 0.0 0.0 0.00 0.00 0.00 55 1018.5
20260509064600 71 103 1.0 7.0 0.00 0.00 0.00 52 1018.3
20260509063055 71 58 0.0 0.0 0.00 0.00 0.00 51 1018.1
20260509061606 72 73 0.0 0.0 0.00 0.00 0.00 50 1017.9
20260509054548 72 83 0.0 9.0 0.00 0.00 0.00 49 1017.7
20260509053038 73 126 3.0 9.0 0.00 0.00 0.00 49 1017.6
20260509051531 73 131 0.0 9.0 0.00 0.00 0.00 49 1017.7
20260509050036 73 82 0.0 0.0 0.00 0.00 0.00 48 1017.6
20260509044522 73 61 0.0 0.0 0.00 0.00 0.00 49 1017.5
20260509043018 73 134 2.0 8.0 0.00 0.00 0.00 49 1017.6
20260509041513 73 105 4.0 10.0 0.00 0.00 0.00 48 1017.6
20260509040008 73 77 0.0 4.0 0.00 0.00 0.00 49 1017.5
20260509034506 72 148 0.0 5.0 0.00 0.00 0.00 50 1017.6
20260509033002 72 215 2.0 7.0 0.00 0.00 0.00 51 1017.8
20260509031557 73 176 0.0 0.0 0.00 0.00 0.00 50 1017.7
20260509030054 73 82 0.0 0.0 0.00 0.00 0.00 51 1017.9
20260509024548 73 117 2.0 9.0 0.00 0.00 0.00 52 1018.1
20260509023055 72 3 1.0 8.0 0.00 0.00 0.00 53 1018.3
20260509021539 72 115 0.0 0.0 0.00 0.00 0.00 53 1018.5
20260509020034 71 221 0.0 0.0 0.00 0.00 0.00 53 1018.7
20260509014529 71 136 0.0 0.0 0.00 0.00 0.00 54 1018.9
20260509013025 70 44 0.0 0.0 0.00 0.00 0.00 55 1019.1
20260509011519 70 171 0.0 0.0 0.00 0.00 0.00 55 1019.3
20260509010016 70 122 0.0 7.0 0.00 0.00 0.00 54 1019.4
20260509004521 69 226 0.0 0.0 0.00 0.00 0.00 54 1019.5
20260509003007 68 165 0.0 0.0 0.00 0.00 0.00 56 1019.7
20260509001504 67 172 0.0 0.0 0.00 0.00 0.00 56 1019.8
20260509000110 66 174 0.0 0.0 0.00 0.00 0.00 58 1019.7
20260508234558 65 217 0.0 0.0 0.00 0.00 0.00 58 1019.8
20260508233049 63 223 0.0 0.0 0.00 0.00 0.00 60 1019.7
20260508231544 61 234 0.0 0.0 0.00 0.00 0.00 62 1019.6
20260508230043 59 224 0.0 0.0 0.00 0.00 0.00 63 1019.5
20260508224536 58 196 0.0 0.0 0.00 0.00 0.00 63 1019.4